Simultaneous Nadir Overpasses (SNOs) Predictions

Prediction of SNOs between AQUA and METOP-B Satellite Orbit:

Table of predicted SNOs for the next 14.0 days since TLE Epoch: 12/20/2014
Index Date (AQUA) Time (AQUA) Lat,Lon (AQUA) SZA (AQUA ) Date (METOP-B) Time (METOP-B) Lat,Lon (METOP-B) SZA (METOP-B ) Distance(km) Time Diff (sec)
1 12/20/2014 16:14:26 -73.66, 110.99 82.96 12/20/2014 16:13:13 -73.59, 110.73 83.01 11.07 73
2 12/20/2014 17:03:55 73.73, -81.53 97.12 12/20/2014 17:03:50 73.71, -81.64 97.11 3.90 5
3 12/20/2014 17:53:22 -73.80, 85.95 82.80 12/20/2014 17:54:30 -73.82, 85.93 82.79 2.09 68
4 12/23/2014 11:48:45 -73.68, 177.37 82.93 12/23/2014 11:47:37 -73.66, 177.29 82.94 3.16 68
5 12/23/2014 12:38:14 73.76, -15.16 97.16 12/23/2014 12:38:15 73.73, -15.20 97.14 2.78 1
6 12/23/2014 13:27:42 -73.88, 152.21 82.72 12/23/2014 13:28:54 -73.89, 152.50 82.72 9.24 72
7 12/26/2014 07:23:01 -73.68,-116.21 82.98 12/26/2014 07:22:01 -73.67,-116.29 82.99 3.07 60
8 12/26/2014 08:12:30 73.77, 51.25 97.11 12/26/2014 08:12:39 73.74, 51.22 97.08 3.04 9
9 12/26/2014 09:02:03 -74.14,-141.96 82.50 12/26/2014 09:03:13 -74.14,-140.47 82.54 45.14 70
10 12/29/2014 02:57:17 -73.72, -49.84 83.06 12/29/2014 02:56:25 -73.71, -49.78 83.06 2.12 52
11 12/29/2014 03:46:45 73.75, 117.72 96.98 12/29/2014 03:47:03 73.78, 117.72 97.01 3.15 18
12 12/31/2014 22:31:30 -73.68, 16.69 83.28 12/31/2014 22:30:50 -73.69, 16.58 83.26 3.55 40
13 12/31/2014 23:20:59 73.77,-175.87 96.82 12/31/2014 23:21:28 73.76,-175.92 96.81 1.97 29




NCC Satellite Simultaneous Nadir Overpasses (SNOs) Prediction Service
